Location: Deuil
(48.9767°N, 2.3272°E)
Time: 03:42:21
(UTC+00:00)

Cosmos 2360 Rocket - Pass Details

Date: 25 May 2022
Orbit: 832 x 846 km, 71.0° (Epoch: 03 July)

Event Time Altitude Azimuth Distance (km) Brightness Sun altitude
Rises 01:36:52 0° 270° (W) 3,387 5.1 -16.0°
Reaches altitude 10° 01:40:29 10° 293° (WNW) 2,459 4.6 -15.7°
Maximum altitude 01:43:37 15° 328° (NNW) 2,131 4.7 -15.5°
Drops below altitude 10° 01:46:47 10° 2° (N) 2,470 5.6 -15.2°
Sets 01:50:26 0° 25° (NNE) 3,411 7.3 -14.9°
